Location: Newark
(49.8969°N, 3.3422°E)
Time: 12:00:18
(UTC+00:00)

Vanguard 2 Rocket - Pass Details

Date: 25 January 2020
Orbit: 554 x 3327 km, 32.9° (Epoch: 19 February)

Event Time Altitude Azimuth Distance (km) Brightness Sun altitude
Exits shadow 05:24:59 - 205° (SSW) 2,570 9.0 -19.9°
Reaches altitude 10° 05:26:58 10° 186° (S) 2,268 9.0 -19.5°
Maximum altitude 05:29:14 13° 159° (SSE) 2,290 9.3 -19.2°
Drops below altitude 10° 05:31:53 10° 134° (SE) 2,763 10.1 -18.7°
Sets 05:37:05 0° 110° (ESE) 4,327 12.0 -17.9°
